timestamp,surface_pressure_avg,surface_temp_avg,battery_voltage,lat,long
2021-04-06 00:09:01+00:00,222.8014,3.3,12.65,47.84626,-54.09684
2021-04-06 00:19:01+00:00,224.6215,3.3,12.65,47.84626,-54.09684
2021-04-06 00:29:01+00:00,225.9799,3.0,12.65,47.84626,-54.09684
2021-04-06 00:39:01+00:00,224.8148,3.05,12.65,47.84626,-54.09684
2021-04-06 00:49:01+00:00,226.4081,3.14,12.65,47.84626,-54.09684
2021-04-06 00:59:01+00:00,226.2164,3.1,12.65,47.84626,-54.09684
2021-04-06 01:09:01+00:00,224.4897,3.24,12.65,47.84626,-54.09684
2021-04-06 01:19:01+00:00,225.063,3.46,12.65,47.84626,-54.09684
2021-04-06 01:29:01+00:00,227.933,3.5,12.65,47.84626,-54.09684
2021-04-06 01:39:01+00:00,226.2164,3.56,12.65,47.84626,-54.09684
2021-04-06 01:49:01+00:00,224.5031,3.7,12.65,47.84626,-54.09684
2021-04-06 01:59:01+00:00,226.7747,3.7,12.65,47.84626,-54.09684
2021-04-06 02:09:01+00:00,229.2731,3.5,12.65,47.84626,-54.09684
2021-04-06 02:19:01+00:00,228.6581,3.4,12.65,47.84626,-54.09684
2021-04-06 02:29:01+00:00,228.5114,3.3,12.65,47.84626,-54.09684
2021-04-06 02:39:01+00:00,232.8564,3.2,12.65,47.84626,-54.09684
2021-04-06 02:49:01+00:00,234.7314,3.2,12.65,47.84626,-54.09684
2021-04-06 02:59:01+00:00,236.2331,3.2,12.65,47.84626,-54.09684
2021-04-06 03:09:01+00:00,239.1647,3.2,12.65,47.84626,-54.09684
2021-04-06 03:19:01+00:00,244.9998,3.2,12.65,47.84626,-54.09684
2021-04-06 03:29:01+00:00,248.2597,3.1,12.65,47.84626,-54.09684
2021-04-06 03:39:01+00:00,253.9764,2.7,12.65,47.84626,-54.09684
2021-04-06 03:49:01+00:00,259.4364,2.68,12.65,47.84626,-54.09684
2021-04-06 03:59:01+00:00,262.9331,2.93,12.65,47.84626,-54.09684
2021-04-06 04:09:01+00:00,268.5647,3.3,12.65,47.84626,-54.09684
2021-04-06 04:19:01+00:00,278.0197,3.45,12.65,47.84626,-54.09684
2021-04-06 04:29:01+00:00,283.643,2.5,12.65,47.84626,-54.09684
2021-04-06 04:39:01+00:00,286.1464,2.64,12.65,47.84626,-54.09684
2021-04-06 04:49:01+00:00,288.9947,3.09,12.65,47.84626,-54.09684
2021-04-06 04:59:01+00:00,295.1497,3.2,12.65,47.84626,-54.09684
2021-04-06 05:09:01+00:00,299.2347,2.94,12.65,47.84626,-54.09684
2021-04-06 05:19:01+00:00,302.4113,2.8,12.57,47.84626,-54.09684
2021-04-06 05:29:01+00:00,305.1114,2.8,12.57,47.84626,-54.09684
2021-04-06 05:39:01+00:00,309.578,2.7,12.57,47.84626,-54.09684
2021-04-06 05:49:01+00:00,313.6647,2.7,12.57,47.84626,-54.09684
2021-04-06 05:59:01+00:00,316.4297,2.7,12.57,47.84626,-54.09684
2021-04-06 06:09:01+00:00,318.9514,2.6,12.57,47.84626,-54.09684
2021-04-06 06:19:01+00:00,322.8813,2.6,12.57,47.84626,-54.09684
2021-04-06 06:29:01+00:00,328.5780000000001,2.6,12.57,47.84626,-54.09684
2021-04-06 06:39:01+00:00,333.0729,2.6,12.57,47.84626,-54.09684
2021-04-06 06:49:01+00:00,334.7579,2.61,12.57,47.84626,-54.09684
2021-04-06 06:59:01+00:00,336.5079,2.6,12.57,47.84626,-54.09684
2021-04-06 07:09:01+00:00,339.5363,2.5,12.57,47.84626,-54.09684
2021-04-06 07:19:01+00:00,342.2613,2.5,12.57,47.84626,-54.09684
2021-04-06 07:29:01+00:00,340.9046,2.47,12.57,47.84626,-54.09684
2021-04-06 07:39:01+00:00,341.2030000000001,2.6,12.57,47.84626,-54.09684
2021-04-06 07:49:01+00:00,340.293,2.69,12.57,47.84626,-54.09684
2021-04-06 07:59:01+00:00,337.4913,2.8,12.57,47.84626,-54.09684
2021-04-06 08:09:01+00:00,330.7946,2.47,12.57,47.84626,-54.09684
2021-04-06 08:19:01+00:00,329.9529,2.4,12.57,47.84626,-54.09684
2021-04-06 08:29:01+00:00,329.5914,2.4,12.57,47.84626,-54.09684
2021-04-06 08:39:01+00:00,324.598,2.4,12.57,47.84626,-54.09684
2021-04-06 08:49:01+00:00,318.5231,2.44,12.57,47.84626,-54.09684
2021-04-06 08:59:01+00:00,314.0514,2.5,12.57,47.84626,-54.09684
2021-04-06 09:09:01+00:00,310.71299999999997,2.69,12.57,47.84626,-54.09684
2021-04-06 09:19:01+00:00,305.288,2.86,12.49,47.84626,-54.09684
2021-04-06 09:29:01+00:00,301.033,2.9,12.49,47.84626,-54.09684
2021-04-06 09:39:01+00:00,297.6964,3.0,12.49,47.84626,-54.09684
2021-04-06 09:49:01+00:00,292.7597,2.8,12.49,47.84626,-54.09684
2021-04-06 09:59:01+00:00,288.2198,2.6,12.49,47.84626,-54.09684
2021-04-06 10:09:01+00:00,283.0013,2.41,12.49,47.84626,-54.09684
2021-04-06 10:19:01+00:00,275.0697,2.37,12.49,47.84626,-54.09684
2021-04-06 10:29:01+00:00,269.5981,3.25,12.49,47.84626,-54.09684
2021-04-06 10:39:01+00:00,269.6763,3.2,12.49,47.84626,-54.09684
2021-04-06 10:49:01+00:00,267.0414,3.19,12.49,47.84626,-54.09684
2021-04-06 10:59:01+00:00,259.2931,2.69,12.49,47.84626,-54.09684
2021-04-06 11:09:01+00:00,255.9998,2.46,12.49,47.84626,-54.09684
2021-04-06 11:19:01+00:00,255.3013,2.55,12.57,47.84626,-54.09684
2021-04-06 11:29:01+00:00,251.0581,2.56,12.57,47.84626,-54.09684
2021-04-06 11:39:01+00:00,244.5197,2.5,12.57,47.84626,-54.09684
2021-04-06 11:49:01+00:00,243.7964,2.66,12.57,47.84626,-54.09684
2021-04-06 11:59:01+00:00,242.6531,2.8,12.57,47.84626,-54.09684
2021-04-06 12:09:01+00:00,239.2464,2.6,12.57,47.84626,-54.09684
2021-04-06 12:19:01+00:00,236.8048,2.4,12.65,47.84626,-54.09684
2021-04-06 12:29:01+00:00,239.3964,2.4,12.65,47.84626,-54.09684
2021-04-06 12:39:01+00:00,235.378,2.39,12.65,47.84626,-54.09684
2021-04-06 12:49:01+00:00,230.9048,2.33,12.65,47.84626,-54.09684
2021-04-06 12:59:01+00:00,232.4798,2.5,12.65,47.84626,-54.09684
2021-04-06 13:09:01+00:00,232.9865,2.61,12.65,47.84626,-54.09684
2021-04-06 13:19:01+00:00,225.9231,2.8,12.97,47.84626,-54.09684
2021-04-06 13:29:01+00:00,222.8131,2.87,12.97,47.84626,-54.09684
2021-04-06 13:39:01+00:00,229.5797,2.8,12.97,47.84626,-54.09684
2021-04-06 13:49:01+00:00,227.6131,2.89,12.97,47.84626,-54.09684
2021-04-06 13:59:01+00:00,221.9531,2.99,12.97,47.84626,-54.09684
2021-04-06 14:09:01+00:00,224.0714,3.2,12.97,47.84626,-54.09684
2021-04-06 14:19:01+00:00,226.6914,2.7,13.05,47.84626,-54.09684
2021-04-06 14:29:01+00:00,221.6364,2.75,13.05,47.84626,-54.09684
2021-04-06 14:39:01+00:00,219.0614,2.8,13.05,47.84626,-54.09684
2021-04-06 14:49:01+00:00,221.2981,2.61,13.05,47.84626,-54.09684
2021-04-06 14:59:01+00:00,224.0781,2.6,13.05,47.84626,-54.09684
2021-04-06 15:09:01+00:00,221.4848,2.55,13.05,47.84626,-54.09684
2021-04-06 15:19:01+00:00,218.3231,2.54,13.21,47.84626,-54.09684
2021-04-06 15:29:01+00:00,222.7314,2.5,13.21,47.84626,-54.09684
2021-04-06 15:39:01+00:00,228.0481,2.5,13.21,47.84626,-54.09684
2021-04-06 15:49:01+00:00,227.2564,2.52,13.21,47.84626,-54.09684
2021-04-06 15:59:01+00:00,227.9081,2.59,13.21,47.84626,-54.09684
2021-04-06 16:09:01+00:00,233.6531,2.6,13.21,47.84626,-54.09684
2021-04-06 16:19:01+00:00,238.6231,2.6,13.21,47.84626,-54.09684
2021-04-06 16:29:01+00:00,240.6531,3.01,13.21,47.84626,-54.09684
2021-04-06 16:39:01+00:00,243.7097,3.19,13.21,47.84626,-54.09684
2021-04-06 16:49:01+00:00,249.2682,3.2,13.21,47.84626,-54.09684
2021-04-06 16:59:01+00:00,254.5714,2.6,13.21,47.84626,-54.09684
2021-04-06 17:09:01+00:00,258.5847,2.69,13.21,47.84626,-54.09684
2021-04-06 17:19:01+00:00,262.7548,2.94,13.37,47.84626,-54.09684
2021-04-06 17:29:01+00:00,267.3614,3.55,13.37,47.84626,-54.09684
2021-04-06 17:39:01+00:00,270.4398,3.64,13.37,47.84626,-54.09684
2021-04-06 17:49:01+00:00,273.3331,3.64,13.37,47.84626,-54.09684
2021-04-06 17:59:01+00:00,277.8064,3.0,13.37,47.84626,-54.09684
2021-04-06 18:09:01+00:00,280.4747,2.4,13.37,47.84626,-54.09684
2021-04-06 18:19:01+00:00,282.1763,2.3,13.29,47.84626,-54.09684
2021-04-06 18:29:01+00:00,286.5247,2.3,13.29,47.84626,-54.09684
2021-04-06 18:39:01+00:00,293.2697,2.3,13.29,47.84626,-54.09684
2021-04-06 18:49:01+00:00,296.1747,2.3,13.29,47.84626,-54.09684
2021-04-06 18:59:01+00:00,297.5814,2.39,13.29,47.84626,-54.09684
2021-04-06 19:09:01+00:00,303.803,2.49,13.29,47.84626,-54.09684
2021-04-06 19:19:01+00:00,308.063,2.5,13.13,47.84626,-54.09684
2021-04-06 19:29:01+00:00,307.0047,2.52,13.13,47.84626,-54.09684
2021-04-06 19:39:01+00:00,307.9131,2.57,13.13,47.84626,-54.09684
2021-04-06 19:49:01+00:00,313.2313,1.82,13.13,47.84626,-54.09684
2021-04-06 19:59:01+00:00,313.6896,1.77,13.13,47.84626,-54.09684
2021-04-06 20:09:01+00:00,312.2147,1.82,13.13,47.84626,-54.09684
2021-04-06 20:19:01+00:00,311.8279,2.1,13.05,47.84626,-54.09684
2021-04-06 20:29:01+00:00,313.9714,1.92,13.05,47.84626,-54.09684
2021-04-06 20:39:01+00:00,311.0914,2.26,13.05,47.84626,-54.09684
2021-04-06 20:49:01+00:00,306.2098,2.39,13.05,47.84626,-54.09684
2021-04-06 20:59:01+00:00,303.1846,2.1,13.05,47.84626,-54.09684
2021-04-06 21:09:01+00:00,299.5313,2.25,13.05,47.84626,-54.09684
2021-04-06 21:19:01+00:00,294.8197,2.3,12.81,47.84626,-54.09684
2021-04-06 21:29:01+00:00,293.1113,1.9,12.81,47.84626,-54.09684
2021-04-06 21:39:01+00:00,290.4281,1.79,12.81,47.84626,-54.09684
2021-04-06 21:49:01+00:00,283.7831,1.8,12.81,47.84626,-54.09684
2021-04-06 21:59:01+00:00,279.7413,1.8,12.81,47.84626,-54.09684
2021-04-06 22:09:01+00:00,277.9047,1.88,12.81,47.84626,-54.09684
2021-04-06 22:19:01+00:00,273.6198,2.47,12.73,47.84626,-54.09684
2021-04-06 22:29:01+00:00,268.6431,2.2,12.73,47.84626,-54.09684
2021-04-06 22:39:01+00:00,266.4231,2.0,12.73,47.84626,-54.09684
2021-04-06 22:49:01+00:00,260.9448,2.11,12.73,47.84626,-54.09684
2021-04-06 22:59:01+00:00,257.3297,2.09,12.73,47.84626,-54.09684
2021-04-06 23:09:01+00:00,254.9264,2.29,12.73,47.84626,-54.09684
2021-04-06 23:19:01+00:00,252.3198,2.4,12.73,47.84626,-54.09684
2021-04-06 23:29:01+00:00,246.6581,2.35,12.73,47.84626,-54.09684
2021-04-06 23:39:01+00:00,243.648,2.89,12.73,47.84626,-54.09684
2021-04-06 23:49:01+00:00,241.748,2.96,12.73,47.84626,-54.09684
2021-04-06 23:59:01+00:00,241.3064,2.95,12.73,47.84626,-54.09684
